Volver al catálogo

STARLINK-31622

ActivoComunicacionesVLEO
NORAD 59456·PAYLOAD·🇺🇸 United States

Lanzado Apr 10, 2024 desde Cape Canaveral Space Force Station

Loading…

Próximos Pases (próximas 24 horas)

TLE

ActualizadoSource: CelesTrak SupGP

Época: Sep 15, 2026, 02:45 UTC

1 59456C 24068B   26258.11506944 -.00028110  00000+0 -10175-2 0  2589
2 59456  43.0045  44.9583 0002072 281.3542 321.6786 15.27611970    19

Sigue STARLINK-31622 en tiempo real con AllMySat

Download on the App Store